Regional Weather Roundup
Issued by NWS

Home | Current Version | Previous Version | Graphics & Text | Print | Product List | Glossary On
Versions: 1 2 3 4 5 6 7 8 9 10 11 12 13 14 15 16 17 18 19 20 21 22 23 24 25 26 27 28 29 30 31 32 33 34 35 36 37 38 39 40 41 42 43 44 45 46 47 48 49 50
526
ASUS45 KCYS 231510
RWRWY

WYOMING REGIONAL WEATHER ROUNDUP
NATIONAL WEATHER SERVICE CHEYENNE WY
800 AM MST THU NOV 23 2017

NOTE:  "FAIR" INDICATES FEW OR NO CLOUDS BELOW 12,000 FEET
WITH NO SIGNIFICANT WEATHER AND/OR OBSTRUCTIONS TO VISIBILITY.

WYZ001-231600-
YELLOWSTONE NATIONAL PARK

CITY           SKY/WX    TMP DP  RH WIND       PRES   REMARKS
LK YELLOWSTONE   N/A     33  33 100 CALM      30.27F
W YELLOWSTONE  NOT AVBL

$$
WYZ002>013-054>058-071-098>099-231600-
NORTHERN WYOMING

CITY           SKY/WX    TMP DP  RH WIND       PRES   REMARKS
JACKSON        FAIR      32  31  96 SW6       30.24F WCI  26
CODY           FAIR      58  35  42 SW12      30.06F
GREYBULL       FAIR      29  28  96 CALM      30.05F
WORLAND        FAIR      32  31  96 SE6       30.04F WCI  26
SHERIDAN       FAIR      49  37  63 CALM      29.93F
BUFFALO        FAIR      54  28  36 W3        29.98F
GILLETTE       FAIR      51  36  56 SW20      29.98F
HULETT         FAIR      50  36  57 SW10      29.98F
NEWCASTLE      FAIR      32  32 100 CALM      30.07R

$$
WYZ014>020-022>026-101>103-231600-
CENTRAL WYOMING

CITY           SKY/WX    TMP DP  RH WIND       PRES   REMARKS
BIG PINEY      FAIR      22  20  92 CALM      30.31F
PINEDALE       FAIR      27  27 100 CALM      30.32F
DUBOIS         FAIR      41  32  70 NW21      30.18F
LANDER         FAIR      40  33  76 S7        30.12F
RIVERTON       FAIR      45  34  65 SW10      30.14F
CASPER         FAIR      47  36  65 SW23      30.14F
DOUGLAS        FAIR      41  37  86 N6        30.12S

$$
WYZ021-027>030-104>119-231600-
SOUTHERN WYOMING

CITY           SKY/WX    TMP DP  RH WIND       PRES   REMARKS
EVANSTON       FAIR      40  35  83 S9        30.33F WCI  34
KEMMERER       FAIR      34  32  93 CALM      30.32F
FORT BRIDGER   FAIR      41  32  70 W6        30.35F
ROCK SPRINGS   FAIR      42  33  70 SW12      30.32F
DIXON          FAIR      31  30  96 CALM      30.39S
RAWLINS        FAIR      43  35  73 W14       30.29S
SARATOGA       FAIR      34  34 100 SE8       30.32R WCI  27
LARAMIE        FAIR      41  32  70 W13       30.26S
CHEYENNE       FAIR      51  34  52 NW12G26   30.20R
TORRINGTON     FAIR      46  40  79 CALM      30.10R
PINE BLUFFS    FAIR      41  34  75 MISG      30.17R

$$




USA.gov is the U.S. government's official web portal to all federal, state and local government web resources and services.